Location: Capelle
(50.3413°N, 1.9974°E)
Time: 00:15:40
(UTC+00:00)

NOSS 3-4 (C) - Pass Details

Date: 12 January 2026
Orbit: 773 x 1438 km, 63.4° (Epoch: 26 December)

Event Time Altitude Azimuth Distance (km) Brightness Sun altitude
Rises 17:32:18 0° 181° (S) 3,236 6.5 -12.1°
Reaches altitude 10° 17:35:00 10° 168° (SSE) 2,329 5.6 -12.5°
Maximum altitude 17:39:15 25° 114° (ESE) 1,583 4.2 -13.2°
Enters shadow 17:41:36 19° 79° (ENE) 1,892 4.4 -13.5°
